Weather History for Torrington, WY

Change the Weather History Date:

Friday, July 12, 2013

  Actual Average Record
Temperature  
Mean Temperature 80 °F 74 °F  
Max Temperature 94 °F 90 °F 99 °F (2002)
Min Temperature 66 °F 58 °F 47 °F (2008)
Degree Days  
Heating Degree Days 0 0  
Month to date heating degree days 0 0  
Since 1 June heating degree days 34 75  
Since 1 July heating degree days 0 0  
Cooling Degree Days 15 9  
Month to date cooling degree days 129 97  
Year to date cooling degree days 328 231  
Since 1 June cooling degree days 289 213  
Growing Degree Days 30 (Base 50)    
Moisture  
Dew Point 58 °F    
Average Humidity 57    
Maximum Humidity 87    
Minimum Humidity 26    
Precipitation  
Precipitation 0.02 in 0.07 in 0.13 in (2011)
Month to date precipitation 0.42 0.50  
Year to date precipitation 5.84 8.39  
Sea Level Pressure  
Sea Level Pressure 29.79 in    
Wind  
Wind Speed 5 mph (WNW)    
Max Wind Speed 26 mph    
Max Gust Speed 33 mph    
Visibility 10 miles    
Events Rain , Thunderstorm    
T = Trace of Precipitation, MM = Missing Value Source: NWS Daily Summary

Daily Weather History Graph

Daily Weather History Graph

Search for Another Location

Airport:

Trip Planner

Search our weather history database for the weather conditions in past years. The results will help you decide how hot, cold, wet, or windy it might be!

Date:

Astronomy

Jul. 12, 2013 Rise Set
Actual Time 5:31 AM MDT 8:32 PM MDT
Civil Twilight 4:58 AM MDT 9:05 PM MDT
Nautical Twilight 4:15 AM MDT 9:48 PM MDT
Astronomical Twilight 3:25 AM MDT 10:38 PM MDT
Moon 9:56 AM MDT (7/12) 10:38 PM MDT (7/12)
Length of Visible Light 16h 07m
Length of Day
15h 00m
Waxing Crescent, 18% of the Moon is Illuminated
Jul 12
Waxing Crescent
Jul 15
First Quarter
Jul 22
Full
Jul 29
Last Quarter
Aug 6
New

Hourly Weather History & Observations

Time (MDT) Temp. Heat Index Dew Point Humidity Pressure Visibility Wind Dir Wind Speed Gust Speed Precip Events Conditions
12:53 AM 78.1 °F - 60.1 °F 54% 29.71 in 10.0 mi NNW 9.2 mph - N/A   Clear
1:53 AM 79.0 °F - 60.1 °F 52% 29.68 in 10.0 mi SSW 5.8 mph - N/A   Partly Cloudy
2:53 AM 77.0 °F - 59.0 °F 54% 29.67 in 10.0 mi SSW 5.8 mph - N/A   Clear
3:53 AM 77.0 °F - 53.1 °F 43% 29.66 in 10.0 mi WSW 8.1 mph - N/A   Clear
4:53 AM 75.0 °F - 51.1 °F 43% 29.70 in 10.0 mi West 8.1 mph - N/A   Clear
5:53 AM 72.0 °F - 52.0 °F 49% 29.73 in 10.0 mi WNW 5.8 mph - N/A   Clear
6:53 AM 72.0 °F - 53.1 °F 51% 29.74 in 10.0 mi West 5.8 mph - N/A   Clear
7:53 AM 77.0 °F - 54.0 °F 45% 29.77 in 10.0 mi WNW 5.8 mph - N/A   Clear
8:53 AM 80.1 °F 80.0 °F 54.0 °F 40% 29.80 in 10.0 mi NNW 10.4 mph - N/A   Clear
9:53 AM 81.0 °F 80.7 °F 55.0 °F 41% 29.80 in 10.0 mi NNW 6.9 mph - N/A   Clear
10:53 AM 82.9 °F 82.1 °F 55.9 °F 39% 29.80 in 10.0 mi NNW 5.8 mph - N/A   Clear
11:53 AM 87.1 °F 84.9 °F 53.1 °F 31% 29.80 in 10.0 mi North 5.8 mph - N/A   Clear
12:53 PM 89.1 °F - 52.0 °F 28% 29.79 in 10.0 mi Calm Calm - N/A   Clear
1:53 PM 91.0 °F - 51.1 °F 25% 29.76 in 10.0 mi Calm Calm - N/A   Clear
2:53 PM 91.0 °F - 51.1 °F 25% 29.75 in 10.0 mi Variable 3.5 mph - N/A   Clear
3:53 PM 88.0 °F - 51.1 °F 28% 29.77 in 10.0 mi West 5.8 mph - N/A Thunderstorm Mostly Cloudy
4:44 PM 71.6 °F - 64.4 °F 78% 30.00 in 5.0 mi SSW 3.5 mph - 0.01 in Rain Light Rain
4:53 PM 75.0 °F - 64.0 °F 69% 29.83 in 9.0 mi Calm Calm - 0.01 in Rain Light Rain
5:53 PM 77.0 °F - 64.9 °F 66% 29.84 in 10.0 mi NNW 6.9 mph - 0.01 in   Partly Cloudy
6:53 PM 77.0 °F - 64.0 °F 64% 29.86 in 10.0 mi Calm Calm - N/A   Overcast
7:53 PM 75.0 °F - 64.0 °F 69% 29.86 in 10.0 mi NW 5.8 mph - 0.00 in   Mostly Cloudy
8:53 PM 73.0 °F - 64.9 °F 76% 29.88 in 10.0 mi Calm Calm - N/A   Partly Cloudy
9:53 PM 70.0 °F - 64.9 °F 84% 29.88 in 10.0 mi West 5.8 mph - 0.00 in Rain Light Rain
10:53 PM 69.1 °F - 66.0 °F 90% 29.90 in 10.0 mi SSE 8.1 mph - 0.00 in   Clear
11:53 PM 68.0 °F - 64.9 °F 90% 29.87 in 10.0 mi ESE 9.2 mph - N/A   Clear